KC2YYF Weather Reports


Display with metric or nautical units.
time (UTC)temp
F
wind
direction
speed
MPH
gust
MPH
rain 1hr
in
rain 24hr
in
rain mn
in
humidity
%
barometer
mb
20260503023047 43 0 0.0 2.0 0.00 0.20 0.20 52 1011.8
20260503021541 44 0 0.0 2.0 0.00 0.20 0.20 51 1011.9
20260503020045 44 118 0.0 3.0 0.00 0.20 0.20 52 1011.9
20260503014539 44 0 0.0 3.0 0.00 0.20 0.20 51 1011.8
20260503013038 44 0 0.0 4.0 0.00 0.20 0.20 51 1011.7
20260503011535 45 0 0.0 2.0 0.00 0.20 0.20 50 1011.6
20260503010041 45 0 0.0 4.0 0.00 0.20 0.20 49 1011.4
20260503004541 46 112 0.0 3.0 0.00 0.20 0.20 49 1011.3
20260503003044 46 155 2.0 6.0 0.00 0.20 0.20 47 1011.3
20260503001534 46 0 0.0 3.0 0.00 0.20 0.20 46 1011.1
20260503000042 47 140 1.0 7.0 0.00 0.20 0.20 45 1011.0
20260502234601 48 153 0.0 3.0 0.00 0.20 0.20 44 1011.1
20260502233041 48 0 1.0 6.0 0.00 0.20 0.20 44 1011.1
20260502231536 49 0 0.0 8.0 0.00 0.20 0.20 43 1011.0
20260502230043 49 0 3.0 8.0 0.00 0.20 0.20 40 1010.9
20260502224541 49 0 1.0 4.0 0.00 0.20 0.20 42 1010.8
20260502223053 50 0 0.0 10.0 0.00 0.20 0.20 41 1010.8
20260502221536 50 132 2.0 9.0 0.00 0.20 0.20 41 1010.7
20260502220035 51 141 4.0 10.0 0.00 0.20 0.20 40 1010.6
20260502214546 51 161 3.0 10.0 0.00 0.20 0.20 40 1010.5
20260502213046 52 0 2.0 8.0 0.00 0.20 0.20 41 1010.4
20260502211539 54 249 2.0 9.0 0.00 0.20 0.20 41 1010.2
20260502210046 53 233 2.0 7.0 0.00 0.20 0.20 40 1010.1
20260502204541 52 205 1.0 10.0 0.00 0.20 0.20 41 1010.1
20260502203049 54 234 2.0 9.0 0.00 0.20 0.20 39 1010.1
20260502201542 56 98 3.0 12.0 0.00 0.20 0.20 38 1010.1
20260502200037 55 142 5.0 14.0 0.00 0.20 0.20 39 1010.1
20260502194542 54 117 3.0 9.0 0.00 0.20 0.20 37 1010.4
20260502193055 56 225 2.0 10.0 0.00 0.20 0.20 41 1010.5
20260502191541 54 221 6.0 11.0 0.00 0.20 0.20 38 1010.8
20260502190044 54 301 1.0 7.0 0.00 0.20 0.20 42 1010.9
20260502184544 54 148 4.0 11.0 0.00 0.20 0.20 38 1010.9
20260502183035 56 215 3.0 10.0 0.00 0.20 0.20 39 1011.0
20260502181544 54 250 2.0 10.0 0.00 0.20 0.20 42 1011.0
20260502163035 54 154 5.0 12.0 0.00 0.20 0.20 46 1011.5
20260502161543 53 161 2.0 10.0 0.00 0.20 0.20 47 1011.7
20260502151606 50 154 4.0 13.0 0.00 0.20 0.20 59 1012.1
20260502123042 42 99 3.0 9.0 0.00 0.20 0.20 93 1011.9
20260502121541 41 111 4.0 10.0 0.00 0.20 0.20 93 1011.9
20260502114538 42 0 1.0 3.0 0.00 0.20 0.20 94 1012.0
20260502113042 42 0 0.0 3.0 0.00 0.20 0.20 94 1012.2
20260502111535 42 292 1.0 6.0 0.00 0.20 0.20 94 1012.1
20260502110047 43 231 1.0 3.0 0.00 0.20 0.20 94 1011.7
20260502104543 43 0 0.0 4.0 0.00 0.20 0.20 94 1011.4
20260502103042 43 0 0.0 3.0 0.00 0.20 0.20 94 1011.2
20260502101541 42 0 0.0 3.0 0.00 0.20 0.20 94 1011.1
20260502071535 43 0 0.0 4.0 0.05 0.10 0.10 92 1011.0
20260502070101 44 272 1.0 4.0 0.03 0.07 0.07 92 1011.1
20260502064546 44 0 1.0 4.0 0.04 0.06 0.06 92 1011.2
20260502063041 44 0 1.0 3.0 0.05 0.05 0.05 91 1011.5
20260502061540 44 0 1.0 6.0 0.05 0.05 0.05 91 1011.7
20260502060042 44 0 0.0 2.0 0.04 0.04 0.04 90 1011.7
20260502054558 44 0 0.0 3.0 0.02 0.02 0.02 90 1012.1
20260502053044 44 340 2.0 4.0 0.00 0.00 0.00 90 1011.8
20260502051547 44 0 0.0 6.0 0.00 0.00 0.00 89 1011.4
20260502050042 44 159 2.0 6.0 0.00 0.00 0.00 89 1011.6
20260502044535 44 0 0.0 3.0 0.00 0.00 0.00 88 1011.6
20260502043046 45 0 0.0 4.0 0.00 0.00 0.00 87 1011.4
20260502041608 45 130 3.0 8.0 0.00 0.00 0.00 86 1011.2
20260502040052 45 0 0.0 5.0 0.00 0.00 0.00 84 1011.2
20260502034545 46 0 1.0 6.0 0.00 0.00 0.00 84 1011.3
20260502033037 46 119 2.0 7.0 0.00 0.00 0.00 83 1011.2
20260502031535 46 88 2.0 7.0 0.00 0.00 0.00 82 1011.3
20260502030059 47 141 4.0 8.0 0.00 0.00 0.00 79 1011.7
20260502024552 47 113 2.0 7.0 0.00 0.00 0.00 77 1011.8